Year,Month,Day,Hour,Minute,Value (Times are PST for temperature in C)
2015,10,15,00,00,7.90
2015,10,15,00,01,7.90
2015,10,15,00,02,7.90
2015,10,15,00,03,7.90
2015,10,15,00,04,7.90
2015,10,15,00,05,7.90
2015,10,15,00,06,7.90
2015,10,15,00,07,7.90
2015,10,15,00,08,7.90
2015,10,15,00,09,8.00
2015,10,15,00,10,7.90
2015,10,15,00,11,8.00
2015,10,15,00,12,7.90
2015,10,15,00,13,7.90
2015,10,15,00,14,7.90
2015,10,15,00,15,7.90
2015,10,15,00,16,7.90
2015,10,15,00,17,7.90
2015,10,15,00,18,7.90
2015,10,15,00,19,7.90
2015,10,15,00,20,7.90
2015,10,15,00,21,7.90
2015,10,15,00,22,7.90
2015,10,15,00,23,7.90
2015,10,15,00,24,7.90
2015,10,15,00,25,7.90
2015,10,15,00,26,7.90
2015,10,15,00,27,7.90
2015,10,15,00,28,7.90
2015,10,15,00,29,7.90
2015,10,15,00,30,7.80
2015,10,15,00,31,7.80
2015,10,15,00,32,7.80
2015,10,15,00,33,7.80
2015,10,15,00,34,7.80
2015,10,15,00,35,7.80
2015,10,15,00,36,7.80
2015,10,15,00,37,7.80
2015,10,15,00,38,7.70
2015,10,15,00,39,7.70
2015,10,15,00,40,7.70
2015,10,15,00,41,7.70
2015,10,15,00,42,7.70
2015,10,15,00,43,7.70
2015,10,15,00,44,7.60
2015,10,15,00,45,7.60
2015,10,15,00,46,7.60
2015,10,15,00,47,7.60
2015,10,15,00,48,7.60
2015,10,15,00,49,7.60
2015,10,15,00,50,7.60
2015,10,15,00,51,7.60
2015,10,15,00,52,7.60
2015,10,15,00,53,7.50
2015,10,15,00,54,7.60
2015,10,15,00,55,7.60
2015,10,15,00,56,7.50
2015,10,15,00,57,7.50
2015,10,15,00,58,7.50
2015,10,15,00,59,7.50
2015,10,15,01,00,7.50
2015,10,15,01,01,7.50
2015,10,15,01,02,7.50
2015,10,15,01,03,7.50
2015,10,15,01,04,7.50
2015,10,15,01,05,7.50
2015,10,15,01,06,7.50
2015,10,15,01,07,7.60
2015,10,15,01,08,7.60
2015,10,15,01,09,7.60
2015,10,15,01,10,7.60
2015,10,15,01,11,7.60
2015,10,15,01,12,7.70
2015,10,15,01,13,7.70
2015,10,15,01,14,7.70
2015,10,15,01,15,7.70
2015,10,15,01,16,7.80
2015,10,15,01,17,7.80
2015,10,15,01,18,7.80
2015,10,15,01,19,7.80
2015,10,15,01,20,7.80
2015,10,15,01,21,7.80
2015,10,15,01,22,7.80
2015,10,15,01,23,7.80
2015,10,15,01,24,7.80
2015,10,15,01,25,7.70
2015,10,15,01,26,7.70
2015,10,15,01,27,7.70
2015,10,15,01,28,7.70
2015,10,15,01,29,7.70
2015,10,15,01,30,7.70
2015,10,15,01,31,7.70
2015,10,15,01,32,7.70
2015,10,15,01,33,7.60
2015,10,15,01,34,7.60
2015,10,15,01,35,7.60
2015,10,15,01,36,7.60
2015,10,15,01,37,7.60
2015,10,15,01,38,7.60
2015,10,15,01,39,7.60
2015,10,15,01,40,7.60
2015,10,15,01,41,7.60
2015,10,15,01,42,7.60
2015,10,15,01,43,7.50
2015,10,15,01,44,7.50
2015,10,15,01,45,7.50
2015,10,15,01,46,7.50
2015,10,15,01,47,7.50
2015,10,15,01,48,7.40
2015,10,15,01,49,7.40
2015,10,15,01,50,7.40
2015,10,15,01,51,7.40
2015,10,15,01,52,7.40
2015,10,15,01,53,7.40
2015,10,15,01,54,7.40
2015,10,15,01,55,7.40
2015,10,15,01,56,7.30
2015,10,15,01,57,7.30
2015,10,15,01,58,7.30
2015,10,15,01,59,7.40
2015,10,15,02,00,7.40
2015,10,15,02,01,7.40
2015,10,15,02,02,7.40
2015,10,15,02,03,7.40
2015,10,15,02,04,7.40
2015,10,15,02,05,7.40
2015,10,15,02,06,7.40
2015,10,15,02,07,7.40
2015,10,15,02,08,7.40
2015,10,15,02,09,7.40
2015,10,15,02,10,7.40
2015,10,15,02,11,7.40
2015,10,15,02,12,7.40
2015,10,15,02,13,7.40
2015,10,15,02,14,7.40
2015,10,15,02,15,7.50
2015,10,15,02,16,7.50
2015,10,15,02,17,7.50
2015,10,15,02,18,7.50
2015,10,15,02,19,7.60
2015,10,15,02,20,7.60
2015,10,15,02,21,7.60
2015,10,15,02,22,7.60
2015,10,15,02,23,7.60
2015,10,15,02,24,7.60
2015,10,15,02,25,7.60
2015,10,15,02,26,7.60
2015,10,15,02,27,7.60
2015,10,15,02,28,7.60
2015,10,15,02,29,7.60
2015,10,15,02,30,7.60
2015,10,15,02,31,7.60
2015,10,15,02,32,7.60
2015,10,15,02,33,7.60
2015,10,15,02,34,7.60
2015,10,15,02,35,7.60
2015,10,15,02,36,7.60
2015,10,15,02,37,7.60
2015,10,15,02,38,7.60
2015,10,15,02,39,7.50
2015,10,15,02,40,7.50
2015,10,15,02,41,7.40
2015,10,15,02,42,7.40
2015,10,15,02,43,7.40
2015,10,15,02,44,7.30
2015,10,15,02,45,7.30
2015,10,15,02,46,7.30
2015,10,15,02,47,7.30
2015,10,15,02,48,7.20
2015,10,15,02,49,7.20
2015,10,15,02,50,7.20
2015,10,15,02,51,7.20
2015,10,15,02,52,7.20
2015,10,15,02,53,7.20
2015,10,15,02,54,7.20
2015,10,15,02,55,7.20
2015,10,15,02,56,7.20
2015,10,15,02,57,7.20
2015,10,15,02,58,7.20
2015,10,15,02,59,7.20
2015,10,15,03,00,7.20
2015,10,15,03,01,7.20
2015,10,15,03,02,7.20
2015,10,15,03,03,7.20
2015,10,15,03,04,7.20
2015,10,15,03,05,7.20
2015,10,15,03,06,7.20
2015,10,15,03,07,7.20
2015,10,15,03,08,7.20
2015,10,15,03,09,7.20
2015,10,15,03,10,7.20
2015,10,15,03,11,7.10
2015,10,15,03,12,7.10
2015,10,15,03,13,7.10
2015,10,15,03,14,7.10
2015,10,15,03,15,7.10
2015,10,15,03,16,7.10
2015,10,15,03,17,7.10
2015,10,15,03,18,7.10
2015,10,15,03,19,7.10
2015,10,15,03,20,7.10
2015,10,15,03,21,7.10
2015,10,15,03,22,7.10
2015,10,15,03,23,7.10
2015,10,15,03,24,7.00
2015,10,15,03,25,7.10
2015,10,15,03,26,7.00
2015,10,15,03,27,7.00
2015,10,15,03,28,7.00
2015,10,15,03,29,7.00
2015,10,15,03,30,6.90
2015,10,15,03,31,6.90
2015,10,15,03,32,6.90
2015,10,15,03,33,6.90
2015,10,15,03,34,6.90
2015,10,15,03,35,6.90
2015,10,15,03,36,6.90
2015,10,15,03,37,6.80
2015,10,15,03,38,6.80
2015,10,15,03,39,6.80
2015,10,15,03,40,6.80
2015,10,15,03,41,6.80
2015,10,15,03,42,6.80
2015,10,15,03,43,6.80
2015,10,15,03,44,6.70
2015,10,15,03,45,6.70
2015,10,15,03,46,6.70
2015,10,15,03,47,6.70
2015,10,15,03,48,6.70
2015,10,15,03,49,6.70
2015,10,15,03,50,6.70
2015,10,15,03,51,6.70
2015,10,15,03,52,6.70
2015,10,15,03,53,6.70
2015,10,15,03,54,6.70
2015,10,15,03,55,6.70
2015,10,15,03,56,6.70
2015,10,15,03,57,6.70
2015,10,15,03,58,6.70
2015,10,15,03,59,6.70
2015,10,15,04,00,6.70
2015,10,15,04,01,6.70
2015,10,15,04,02,6.70
2015,10,15,04,03,6.70
2015,10,15,04,04,6.70
2015,10,15,04,05,6.60
2015,10,15,04,06,6.60
2015,10,15,04,07,6.60
2015,10,15,04,08,6.60
2015,10,15,04,09,6.70
2015,10,15,04,10,6.70
2015,10,15,04,11,6.70
2015,10,15,04,12,6.70
2015,10,15,04,13,6.70
2015,10,15,04,14,6.70
2015,10,15,04,15,6.70
2015,10,15,04,16,6.70
2015,10,15,04,17,6.70
2015,10,15,04,18,6.70
2015,10,15,04,19,6.70
2015,10,15,04,20,6.70
2015,10,15,04,21,6.70
2015,10,15,04,22,6.60
2015,10,15,04,23,6.60
2015,10,15,04,24,6.60
2015,10,15,04,25,6.60
2015,10,15,04,26,6.60
2015,10,15,04,27,6.60
2015,10,15,04,28,6.60
2015,10,15,04,29,6.50
2015,10,15,04,30,6.50
2015,10,15,04,31,6.50
2015,10,15,04,32,6.50
2015,10,15,04,33,6.50
2015,10,15,04,34,6.50
2015,10,15,04,35,6.40
2015,10,15,04,36,6.50
2015,10,15,04,37,6.40
2015,10,15,04,38,6.40
2015,10,15,04,39,6.40
2015,10,15,04,40,6.40
2015,10,15,04,41,6.40
2015,10,15,04,42,6.40
2015,10,15,04,43,6.40
2015,10,15,04,44,6.40
2015,10,15,04,45,6.40
2015,10,15,04,46,6.40
2015,10,15,04,47,6.40
2015,10,15,04,48,6.40
2015,10,15,04,49,6.40
2015,10,15,04,50,6.40
2015,10,15,04,51,6.40
2015,10,15,04,52,6.30
2015,10,15,04,53,6.30
2015,10,15,04,54,6.30
2015,10,15,04,55,6.30
2015,10,15,04,56,6.30
2015,10,15,04,57,6.30
2015,10,15,04,58,6.30
2015,10,15,04,59,6.30
2015,10,15,05,00,6.30
2015,10,15,05,01,6.30
2015,10,15,05,02,6.30
2015,10,15,05,03,6.30
2015,10,15,05,04,6.30
2015,10,15,05,05,6.20
2015,10,15,05,06,6.20
2015,10,15,05,07,6.20
2015,10,15,05,08,6.20
2015,10,15,05,09,6.20
2015,10,15,05,10,6.20
2015,10,15,05,11,6.20
2015,10,15,05,12,6.20
2015,10,15,05,13,6.20
2015,10,15,05,14,6.20
2015,10,15,05,15,6.20
2015,10,15,05,16,6.20
2015,10,15,05,17,6.20
2015,10,15,05,18,6.20
2015,10,15,05,19,6.20
2015,10,15,05,20,6.30
2015,10,15,05,21,6.30
2015,10,15,05,22,6.30
2015,10,15,05,23,6.40
2015,10,15,05,24,6.30
2015,10,15,05,25,6.30
2015,10,15,05,26,6.40
2015,10,15,05,27,6.40
2015,10,15,05,28,6.40
2015,10,15,05,29,6.40
2015,10,15,05,30,6.40
2015,10,15,05,31,6.40
2015,10,15,05,32,6.50
2015,10,15,05,33,6.50
2015,10,15,05,34,6.50
2015,10,15,05,35,6.60
2015,10,15,05,36,6.60
2015,10,15,05,37,6.60
2015,10,15,05,38,6.60
2015,10,15,05,39,6.60
2015,10,15,05,40,6.60
2015,10,15,05,41,6.60
2015,10,15,05,42,6.60
2015,10,15,05,43,6.60
2015,10,15,05,44,6.60
2015,10,15,05,45,6.60
2015,10,15,05,46,6.60
2015,10,15,05,47,6.50
2015,10,15,05,48,6.50
2015,10,15,05,49,6.50
2015,10,15,05,50,6.50
2015,10,15,05,51,6.50
2015,10,15,05,52,6.50
2015,10,15,05,53,6.50
2015,10,15,05,54,6.40
2015,10,15,05,55,6.40
2015,10,15,05,56,6.40
2015,10,15,05,57,6.40
2015,10,15,05,58,6.40
2015,10,15,05,59,6.40
2015,10,15,06,00,6.30
2015,10,15,06,01,6.30
2015,10,15,06,02,6.30
2015,10,15,06,03,6.30
2015,10,15,06,04,6.30
2015,10,15,06,05,6.30
2015,10,15,06,06,6.30
2015,10,15,06,07,6.30
2015,10,15,06,08,6.30
2015,10,15,06,09,6.30
2015,10,15,06,10,6.20
2015,10,15,06,11,6.20
2015,10,15,06,12,6.20
2015,10,15,06,13,6.20
2015,10,15,06,14,6.20
2015,10,15,06,15,6.20
2015,10,15,06,16,6.20
2015,10,15,06,17,6.20
2015,10,15,06,18,6.20
2015,10,15,06,19,6.20
2015,10,15,06,20,6.20
2015,10,15,06,21,6.20
2015,10,15,06,22,6.20
2015,10,15,06,23,6.20
2015,10,15,06,24,6.20
2015,10,15,06,25,6.20
2015,10,15,06,26,6.20
2015,10,15,06,27,6.20
2015,10,15,06,28,6.20
2015,10,15,06,29,6.20
2015,10,15,06,30,6.20
2015,10,15,06,31,6.20
2015,10,15,06,32,6.30
2015,10,15,06,33,6.30
2015,10,15,06,34,6.30
2015,10,15,06,35,6.30
2015,10,15,06,36,6.30
2015,10,15,06,37,6.30
2015,10,15,06,38,6.30
2015,10,15,06,39,6.30
2015,10,15,06,40,6.30
2015,10,15,06,41,6.40
2015,10,15,06,42,6.40
2015,10,15,06,43,6.40
2015,10,15,06,44,6.40
2015,10,15,06,45,6.40
2015,10,15,06,46,6.40
2015,10,15,06,47,6.40
2015,10,15,06,48,6.40
2015,10,15,06,49,6.40
2015,10,15,06,50,6.40
2015,10,15,06,51,6.40
2015,10,15,06,52,6.40
2015,10,15,06,53,6.40
2015,10,15,06,54,6.40
2015,10,15,06,55,6.40
2015,10,15,06,56,6.40
2015,10,15,06,57,6.40
2015,10,15,06,58,6.40
2015,10,15,06,59,6.40
2015,10,15,07,00,6.40
2015,10,15,07,01,6.40
2015,10,15,07,02,6.40
2015,10,15,07,03,6.40
2015,10,15,07,04,6.40
2015,10,15,07,05,6.40
2015,10,15,07,06,6.40
2015,10,15,07,07,6.40
2015,10,15,07,08,6.40
2015,10,15,07,09,6.40
2015,10,15,07,10,6.40
2015,10,15,07,11,6.40
2015,10,15,07,12,6.40
2015,10,15,07,13,6.40
2015,10,15,07,14,6.40
2015,10,15,07,15,6.40
2015,10,15,07,16,6.40
2015,10,15,07,17,6.40
2015,10,15,07,18,6.40
2015,10,15,07,19,6.40
2015,10,15,07,20,6.40
2015,10,15,07,21,6.40
2015,10,15,07,22,6.40
2015,10,15,07,23,6.40
2015,10,15,07,24,6.50
2015,10,15,07,25,6.50
2015,10,15,07,26,6.50
2015,10,15,07,27,6.50
2015,10,15,07,28,6.50
2015,10,15,07,29,6.50
2015,10,15,07,30,6.50
2015,10,15,07,31,6.50
2015,10,15,07,32,6.50
2015,10,15,07,33,6.50
2015,10,15,07,34,6.50
2015,10,15,07,35,6.50
2015,10,15,07,36,6.50
2015,10,15,07,37,6.50
2015,10,15,07,38,6.60
2015,10,15,07,39,6.60
2015,10,15,07,40,6.60
2015,10,15,07,41,6.60
2015,10,15,07,42,6.60
2015,10,15,07,43,6.60
2015,10,15,07,44,6.60
2015,10,15,07,45,6.60
2015,10,15,07,46,6.60
2015,10,15,07,47,6.60
2015,10,15,07,48,6.60
2015,10,15,07,49,6.60
2015,10,15,07,50,6.60
2015,10,15,07,51,6.60
2015,10,15,07,52,6.60
2015,10,15,07,53,6.60
2015,10,15,07,54,6.60
2015,10,15,07,55,6.60
2015,10,15,07,56,6.60
2015,10,15,07,57,6.60
2015,10,15,07,58,6.60
2015,10,15,07,59,6.60
2015,10,15,08,00,6.60
2015,10,15,08,01,6.60
2015,10,15,08,02,6.60
2015,10,15,08,03,6.60
2015,10,15,08,04,6.60
2015,10,15,08,05,6.70
2015,10,15,08,06,6.70
2015,10,15,08,07,6.70
2015,10,15,08,08,6.70
2015,10,15,08,09,6.70
2015,10,15,08,10,6.70
2015,10,15,08,11,6.70
2015,10,15,08,12,6.70
2015,10,15,08,13,6.70
2015,10,15,08,14,6.70
2015,10,15,08,15,6.70
2015,10,15,08,16,6.70
2015,10,15,08,17,6.70
2015,10,15,08,18,6.70
2015,10,15,08,19,6.70
2015,10,15,08,20,6.70
2015,10,15,08,21,6.70
2015,10,15,08,22,6.70
2015,10,15,08,23,6.70
2015,10,15,08,24,6.70
2015,10,15,08,25,6.70
2015,10,15,08,26,6.70
2015,10,15,08,27,6.70
2015,10,15,08,28,6.70
2015,10,15,08,29,6.70
2015,10,15,08,30,6.70
2015,10,15,08,31,6.70
2015,10,15,08,32,6.70
2015,10,15,08,33,6.70
2015,10,15,08,34,6.80
2015,10,15,08,35,6.80
2015,10,15,08,36,6.80
2015,10,15,08,37,6.80
2015,10,15,08,38,6.80
2015,10,15,08,39,6.80
2015,10,15,08,40,6.80
2015,10,15,08,41,6.80
2015,10,15,08,42,6.80
2015,10,15,08,43,6.90
2015,10,15,08,44,6.90
2015,10,15,08,45,6.90
2015,10,15,08,46,6.90
2015,10,15,08,47,6.90
2015,10,15,08,48,6.90
2015,10,15,08,49,7.00
2015,10,15,08,50,7.00
2015,10,15,08,51,7.10
2015,10,15,08,52,7.10
2015,10,15,08,53,7.10
2015,10,15,08,54,7.20
2015,10,15,08,55,7.20
2015,10,15,08,56,7.30
2015,10,15,08,57,7.30
2015,10,15,08,58,7.30
2015,10,15,08,59,7.40
2015,10,15,09,00,7.40
2015,10,15,09,01,7.40
2015,10,15,09,02,7.40
2015,10,15,09,03,7.50
2015,10,15,09,04,7.50
2015,10,15,09,05,7.50
2015,10,15,09,06,7.60
2015,10,15,09,07,7.60
2015,10,15,09,08,7.60
2015,10,15,09,09,7.70
2015,10,15,09,10,7.70
2015,10,15,09,11,7.70
2015,10,15,09,12,7.80
2015,10,15,09,13,7.80
2015,10,15,09,14,7.80
2015,10,15,09,15,7.80
2015,10,15,09,16,7.90
2015,10,15,09,17,7.90
2015,10,15,09,18,8.00
2015,10,15,09,19,8.00
2015,10,15,09,20,8.10
2015,10,15,09,21,8.10
2015,10,15,09,22,8.10
2015,10,15,09,23,8.10
2015,10,15,09,24,8.20
2015,10,15,09,25,8.20
2015,10,15,09,26,8.20
2015,10,15,09,27,8.20
2015,10,15,09,28,8.30
2015,10,15,09,29,8.30
2015,10,15,09,30,8.30
2015,10,15,09,31,8.30
2015,10,15,09,32,8.30
2015,10,15,09,33,8.30
2015,10,15,09,34,8.40
2015,10,15,09,35,8.40
2015,10,15,09,36,8.40
2015,10,15,09,37,8.40
2015,10,15,09,38,8.40
2015,10,15,09,39,8.50
2015,10,15,09,40,8.50
2015,10,15,09,41,8.50
2015,10,15,09,42,8.60
2015,10,15,09,43,8.60
2015,10,15,09,44,8.60
2015,10,15,09,45,8.60
2015,10,15,09,46,8.70
2015,10,15,09,47,8.70
2015,10,15,09,48,8.70
2015,10,15,09,49,8.80
2015,10,15,09,50,8.80
2015,10,15,09,51,8.80
2015,10,15,09,52,8.90
2015,10,15,09,53,9.00
2015,10,15,09,54,9.00
2015,10,15,09,55,9.10
2015,10,15,09,56,9.10
2015,10,15,09,57,9.20
2015,10,15,09,58,9.20
2015,10,15,09,59,9.30
2015,10,15,10,00,9.30
2015,10,15,10,01,9.40
2015,10,15,10,02,9.50
2015,10,15,10,03,9.50
2015,10,15,10,04,9.60
2015,10,15,10,05,9.60
2015,10,15,10,06,9.70
2015,10,15,10,07,9.70
2015,10,15,10,08,9.70
2015,10,15,10,09,9.80
2015,10,15,10,10,9.80
2015,10,15,10,11,9.90
2015,10,15,10,12,9.90
2015,10,15,10,13,10.00
2015,10,15,10,14,10.10
2015,10,15,10,15,10.10
2015,10,15,10,16,10.20
2015,10,15,10,17,10.20
2015,10,15,10,18,10.30
2015,10,15,10,19,10.40
2015,10,15,10,20,10.50
2015,10,15,10,21,10.50
2015,10,15,10,22,10.60
2015,10,15,10,23,10.60
2015,10,15,10,24,10.70
2015,10,15,10,25,10.80
2015,10,15,10,26,10.80
2015,10,15,10,27,10.80
2015,10,15,10,28,10.90
2015,10,15,10,29,11.00
2015,10,15,10,30,11.00
2015,10,15,10,31,11.10
2015,10,15,10,32,11.20
2015,10,15,10,33,11.20
2015,10,15,10,34,11.30
2015,10,15,10,35,11.40
2015,10,15,10,36,11.50
2015,10,15,10,37,11.60
2015,10,15,10,38,11.60
2015,10,15,10,39,11.70
2015,10,15,10,40,11.80
2015,10,15,10,41,11.90
2015,10,15,10,42,12.00
2015,10,15,10,43,12.10
2015,10,15,10,44,12.10
2015,10,15,10,45,12.20
2015,10,15,10,46,12.20
2015,10,15,10,47,12.30
2015,10,15,10,48,12.30
2015,10,15,10,49,12.40
2015,10,15,10,50,12.50
2015,10,15,10,51,12.60
2015,10,15,10,52,12.70
2015,10,15,10,53,12.80
2015,10,15,10,54,12.90
2015,10,15,10,55,13.00
2015,10,15,10,56,13.10
2015,10,15,10,57,13.20
2015,10,15,10,58,13.30
2015,10,15,10,59,13.40
2015,10,15,11,00,13.40
2015,10,15,11,01,13.50
2015,10,15,11,02,13.60
2015,10,15,11,03,13.70
2015,10,15,11,04,13.70
2015,10,15,11,05,13.80
2015,10,15,11,06,13.90
2015,10,15,11,07,14.00
2015,10,15,11,08,14.10
2015,10,15,11,09,14.20
2015,10,15,11,10,14.20
2015,10,15,11,11,14.30
2015,10,15,11,12,14.40
2015,10,15,11,13,14.50
2015,10,15,11,14,14.50
2015,10,15,11,15,14.60
2015,10,15,11,16,14.70
2015,10,15,11,17,14.80
2015,10,15,11,18,14.80
2015,10,15,11,19,14.90
2015,10,15,11,20,15.00
2015,10,15,11,21,15.10
2015,10,15,11,22,15.10
2015,10,15,11,23,15.20
2015,10,15,11,24,15.20
2015,10,15,11,25,15.30
2015,10,15,11,26,15.40
2015,10,15,11,27,15.50
2015,10,15,11,28,15.50
2015,10,15,11,29,15.60
2015,10,15,11,30,15.70
2015,10,15,11,31,15.80
2015,10,15,11,32,15.90
2015,10,15,11,33,16.00
2015,10,15,11,34,16.10
2015,10,15,11,35,16.20
2015,10,15,11,36,16.30
2015,10,15,11,37,16.40
2015,10,15,11,38,16.40
2015,10,15,11,39,16.50
2015,10,15,11,40,16.60
2015,10,15,11,41,16.70
2015,10,15,11,42,16.70
2015,10,15,11,43,16.80
2015,10,15,11,44,16.90
2015,10,15,11,45,16.90
2015,10,15,11,46,17.00
2015,10,15,11,47,17.10
2015,10,15,11,48,17.10
2015,10,15,11,49,17.20
2015,10,15,11,50,17.20
2015,10,15,11,51,17.30
2015,10,15,11,52,17.30
2015,10,15,11,53,17.40
2015,10,15,11,54,17.50
2015,10,15,11,55,17.50
2015,10,15,11,56,17.60
2015,10,15,11,57,17.60
2015,10,15,11,58,17.60
2015,10,15,11,59,17.60
2015,10,15,12,00,17.70
2015,10,15,12,01,17.70
2015,10,15,12,02,17.80
2015,10,15,12,03,17.80
2015,10,15,12,04,17.80
2015,10,15,12,05,17.80
2015,10,15,12,06,17.80
2015,10,15,12,07,17.80
2015,10,15,12,08,17.80
2015,10,15,12,09,17.80
2015,10,15,12,10,17.80
2015,10,15,12,11,17.80
2015,10,15,12,12,17.80
2015,10,15,12,13,17.80
2015,10,15,12,14,17.80
2015,10,15,12,15,17.80
2015,10,15,12,16,17.80
2015,10,15,12,17,17.80
2015,10,15,12,18,17.80
2015,10,15,12,19,17.80
2015,10,15,12,20,17.80
2015,10,15,12,21,17.90
2015,10,15,12,22,17.90
2015,10,15,12,23,17.90
2015,10,15,12,24,18.00
2015,10,15,12,25,18.00
2015,10,15,12,26,18.00
2015,10,15,12,27,18.00
2015,10,15,12,28,18.00
2015,10,15,12,29,18.00
2015,10,15,12,30,18.00
2015,10,15,12,31,18.00
2015,10,15,12,32,18.10
2015,10,15,12,33,18.10
2015,10,15,12,34,18.10
2015,10,15,12,35,18.00
2015,10,15,12,36,18.00
2015,10,15,12,37,18.00
2015,10,15,12,38,18.00
2015,10,15,12,39,18.00
2015,10,15,12,40,18.00
2015,10,15,12,41,18.00
2015,10,15,12,42,17.90
2015,10,15,12,43,17.90
2015,10,15,12,44,18.00
2015,10,15,12,45,18.00
2015,10,15,12,46,18.00
2015,10,15,12,47,18.00
2015,10,15,12,48,18.00
2015,10,15,12,49,18.10
2015,10,15,12,50,18.00
2015,10,15,12,51,18.00
2015,10,15,12,52,18.10
2015,10,15,12,53,18.10
2015,10,15,12,54,18.10
2015,10,15,12,55,18.10
2015,10,15,12,56,18.00
2015,10,15,12,57,18.00
2015,10,15,12,58,18.00
2015,10,15,12,59,18.00
2015,10,15,13,00,18.00
2015,10,15,13,01,18.00
2015,10,15,13,02,18.00
2015,10,15,13,03,18.00
2015,10,15,13,04,18.00
2015,10,15,13,05,18.10
2015,10,15,13,06,18.10
2015,10,15,13,07,18.10
2015,10,15,13,08,18.10
2015,10,15,13,09,18.10
2015,10,15,13,10,18.20
2015,10,15,13,11,18.20
2015,10,15,13,12,18.20
2015,10,15,13,13,18.20
2015,10,15,13,14,18.20
2015,10,15,13,15,18.30
2015,10,15,13,16,18.20
2015,10,15,13,17,18.20
2015,10,15,13,18,18.20
2015,10,15,13,19,18.20
2015,10,15,13,20,18.20
2015,10,15,13,21,18.20
2015,10,15,13,22,18.20
2015,10,15,13,23,18.20
2015,10,15,13,24,18.20
2015,10,15,13,25,18.20
2015,10,15,13,26,18.20
2015,10,15,13,27,18.20
2015,10,15,13,28,18.20
2015,10,15,13,29,18.20
2015,10,15,13,30,18.20
2015,10,15,13,31,18.20
2015,10,15,13,32,18.20
2015,10,15,13,33,18.20
2015,10,15,13,34,18.20
2015,10,15,13,35,18.20
2015,10,15,13,36,18.30
2015,10,15,13,37,18.30
2015,10,15,13,38,18.30
2015,10,15,13,39,18.40
2015,10,15,13,40,18.40
2015,10,15,13,41,18.40
2015,10,15,13,42,18.50
2015,10,15,13,43,18.40
2015,10,15,13,44,18.40
2015,10,15,13,45,18.40
2015,10,15,13,46,18.40
2015,10,15,13,47,18.50
2015,10,15,13,48,18.50
2015,10,15,13,49,18.50
2015,10,15,13,50,18.50
2015,10,15,13,51,18.50
2015,10,15,13,52,18.60
2015,10,15,13,53,18.60
2015,10,15,13,54,18.60
2015,10,15,13,55,18.60
2015,10,15,13,56,18.70
2015,10,15,13,57,18.70
2015,10,15,13,58,18.70
2015,10,15,13,59,18.70
2015,10,15,14,00,18.70
2015,10,15,14,01,18.70
2015,10,15,14,02,18.70
2015,10,15,14,03,18.80
2015,10,15,14,04,18.80
2015,10,15,14,05,18.80
2015,10,15,14,06,18.90
2015,10,15,14,07,18.90
2015,10,15,14,08,18.90
2015,10,15,14,09,19.00
2015,10,15,14,10,19.00
2015,10,15,14,11,19.10
2015,10,15,14,12,19.10
2015,10,15,14,13,19.10
2015,10,15,14,14,19.10
2015,10,15,14,15,19.10
2015,10,15,14,16,19.10
2015,10,15,14,17,19.10
2015,10,15,14,18,19.20
2015,10,15,14,19,19.20
2015,10,15,14,20,19.20
2015,10,15,14,21,19.20
2015,10,15,14,22,19.30
2015,10,15,14,23,19.30
2015,10,15,14,24,19.30
2015,10,15,14,25,19.30
2015,10,15,14,26,19.40
2015,10,15,14,27,19.40
2015,10,15,14,28,19.40
2015,10,15,14,29,19.40
2015,10,15,14,30,19.40
2015,10,15,14,31,19.40
2015,10,15,14,32,19.40
2015,10,15,14,33,19.40
2015,10,15,14,34,19.50
2015,10,15,14,35,19.50
2015,10,15,14,36,19.50
2015,10,15,14,37,19.50
2015,10,15,14,38,19.50
2015,10,15,14,39,19.50
2015,10,15,14,40,19.50
2015,10,15,14,41,19.50
2015,10,15,14,42,19.50
2015,10,15,14,43,19.40
2015,10,15,14,44,19.40
2015,10,15,14,45,19.40
2015,10,15,14,46,19.40
2015,10,15,14,47,19.40
2015,10,15,14,48,19.50
2015,10,15,14,49,19.50
2015,10,15,14,50,19.50
2015,10,15,14,51,19.50
2015,10,15,14,52,19.50
2015,10,15,14,53,19.50
2015,10,15,14,54,19.50
2015,10,15,14,55,19.50
2015,10,15,14,56,19.50
2015,10,15,14,57,19.60
2015,10,15,14,58,19.60
2015,10,15,14,59,19.60
2015,10,15,15,00,19.60
2015,10,15,15,01,19.60
2015,10,15,15,02,19.60
2015,10,15,15,03,19.70
2015,10,15,15,04,19.70
2015,10,15,15,05,19.70
2015,10,15,15,06,19.70
2015,10,15,15,07,19.80
2015,10,15,15,08,19.80
2015,10,15,15,09,19.70
2015,10,15,15,10,19.70
2015,10,15,15,11,19.70
2015,10,15,15,12,19.70
2015,10,15,15,13,19.60
2015,10,15,15,14,19.60
2015,10,15,15,15,19.60
2015,10,15,15,16,19.60
2015,10,15,15,17,19.50
2015,10,15,15,18,19.50
2015,10,15,15,19,19.50
2015,10,15,15,20,19.60
2015,10,15,15,21,19.60
2015,10,15,15,22,19.60
2015,10,15,15,23,19.60
2015,10,15,15,24,19.60
2015,10,15,15,25,19.60
2015,10,15,15,26,19.60
2015,10,15,15,27,19.60
2015,10,15,15,28,19.70
2015,10,15,15,29,19.70
2015,10,15,15,30,19.70
2015,10,15,15,31,19.70
2015,10,15,15,32,19.80
2015,10,15,15,33,19.80
2015,10,15,15,34,19.80
2015,10,15,15,35,19.80
2015,10,15,15,36,19.90
2015,10,15,15,37,19.90
2015,10,15,15,38,19.90
2015,10,15,15,39,19.90
2015,10,15,15,40,19.90
2015,10,15,15,41,19.90
2015,10,15,15,42,19.90
2015,10,15,15,43,19.90
2015,10,15,15,44,19.90
2015,10,15,15,45,19.90
2015,10,15,15,46,19.90
2015,10,15,15,47,19.90
2015,10,15,15,48,19.90
2015,10,15,15,49,19.90
2015,10,15,15,50,19.90
2015,10,15,15,51,19.90
2015,10,15,15,52,19.90
2015,10,15,15,53,19.90
2015,10,15,15,54,20.00
2015,10,15,15,55,20.00
2015,10,15,15,56,20.00
2015,10,15,15,57,20.00
2015,10,15,15,58,19.90
2015,10,15,15,59,19.90
2015,10,15,16,00,19.90
2015,10,15,16,01,20.00
2015,10,15,16,02,20.00
2015,10,15,16,03,20.00
2015,10,15,16,04,20.00
2015,10,15,16,05,20.00
2015,10,15,16,06,20.10
2015,10,15,16,07,20.10
2015,10,15,16,08,20.10
2015,10,15,16,09,20.10
2015,10,15,16,10,20.10
2015,10,15,16,11,20.10
2015,10,15,16,12,20.10
2015,10,15,16,13,20.10
2015,10,15,16,14,20.10
2015,10,15,16,15,20.10
2015,10,15,16,16,20.10
2015,10,15,16,17,20.10
2015,10,15,16,18,20.10
2015,10,15,16,19,20.00
2015,10,15,16,20,20.00
2015,10,15,16,21,20.00
2015,10,15,16,22,20.00
2015,10,15,16,23,20.00
2015,10,15,16,24,19.90
2015,10,15,16,25,19.90
2015,10,15,16,26,19.90
2015,10,15,16,27,19.80
2015,10,15,16,28,19.80
2015,10,15,16,29,19.80
2015,10,15,16,30,19.80
2015,10,15,16,31,19.80
2015,10,15,16,32,19.80
2015,10,15,16,33,19.80
2015,10,15,16,34,19.80
2015,10,15,16,35,19.80
2015,10,15,16,36,19.80
2015,10,15,16,37,19.80
2015,10,15,16,38,19.80
2015,10,15,16,39,19.80
2015,10,15,16,40,19.80
2015,10,15,16,41,19.70
2015,10,15,16,42,19.70
2015,10,15,16,43,19.70
2015,10,15,16,44,19.70
2015,10,15,16,45,19.70
2015,10,15,16,46,19.60
2015,10,15,16,47,19.60
2015,10,15,16,48,19.60
2015,10,15,16,49,19.60
2015,10,15,16,50,19.60
2015,10,15,16,51,19.60
2015,10,15,16,52,19.60
2015,10,15,16,53,19.50
2015,10,15,16,54,19.50
2015,10,15,16,55,19.40
2015,10,15,16,56,19.40
2015,10,15,16,57,19.40
2015,10,15,16,58,19.40
2015,10,15,16,59,19.30
2015,10,15,17,00,19.30
2015,10,15,17,01,19.30
2015,10,15,17,02,19.30
2015,10,15,17,03,19.30
2015,10,15,17,04,19.30
2015,10,15,17,05,19.30
2015,10,15,17,06,19.30
2015,10,15,17,07,19.20
2015,10,15,17,08,19.20
2015,10,15,17,09,19.20
2015,10,15,17,10,19.20
2015,10,15,17,11,19.20
2015,10,15,17,12,19.10
2015,10,15,17,13,19.10
2015,10,15,17,14,19.10
2015,10,15,17,15,19.10
2015,10,15,17,16,19.10
2015,10,15,17,17,19.10
2015,10,15,17,18,19.00
2015,10,15,17,19,19.00
2015,10,15,17,20,19.00
2015,10,15,17,21,18.90
2015,10,15,17,22,18.90
2015,10,15,17,23,18.90
2015,10,15,17,24,18.80
2015,10,15,17,25,18.80
2015,10,15,17,26,18.70
2015,10,15,17,27,18.70
2015,10,15,17,28,18.60
2015,10,15,17,29,18.50
2015,10,15,17,30,18.50
2015,10,15,17,31,18.40
2015,10,15,17,32,18.30
2015,10,15,17,33,18.30
2015,10,15,17,34,18.20
2015,10,15,17,35,18.10
2015,10,15,17,36,18.10
2015,10,15,17,37,18.00
2015,10,15,17,38,17.90
2015,10,15,17,39,17.80
2015,10,15,17,40,17.80
2015,10,15,17,41,17.70
2015,10,15,17,42,17.70
2015,10,15,17,43,17.60
2015,10,15,17,44,17.60
2015,10,15,17,45,17.50
2015,10,15,17,46,17.50